Regional Weather Roundup
Issued by NWS

Home | Current Version | Previous Version | Text Only | Print | Product List | Glossary On
Versions: 1 2 3 4 5 6 7 8 9 10 11 12 13 14 15 16 17 18 19 20 21 22 23 24 25 26 27 28 29 30 31 32 33 34 35 36 37 38 39 40 41 42 43 44 45 46 47 48 49 50
000
ASUS43 KMKX 291800
RWRWI

WISCONSIN REGIONAL WEATHER ROUNDUP
NATIONAL WEATHER SERVICE MILWAUKEE/SULLIVAN WI
100 PM CDT THU SEP 29 2016

NOTE: "FAIR" INDICATES FEW OR NO CLOUDS BELOW 12,000 FEET WITH NO
SIGNIFICANT WEATHER AND/OR OBSTRUCTIONS TO VISIBILITY.

WIZ001-002-006>008-014>016-023>028-291900-
NORTHWEST WISCONSIN

CITY           SKY/WX    TMP DP  RH WIND       PRES   REMARKS
SUPERIOR ARPT  PTSUNNY   59  51  74 NE10G16   30.52S
ASHLAND        PTSUNNY   58  52  80 NE13      30.51F
6HR MIN TEMP:  43; 6HR MAX TEMP:  61;

HAYWARD        FAIR      62  49  62 NE7       30.48F
6HR MIN TEMP:  49; 6HR MAX TEMP:  62;

SIREN          CLOUDY    61  49  65 E6        30.49S
CUMBERLAND     FAIR      61  48  63 E6        30.47F
RICE LAKE      FAIR      64  49  58 N6        30.48S
CHETEK         NOT AVBL
LADYSMITH      FAIR      64  53  65 E8        30.48S
EAU CLAIRE     FAIR      64  51  62 VRB6      30.44F
6HR MIN TEMP:  49; 6HR MAX TEMP:  64;

MENOMONIE      FAIR      67  48  51 NE5       30.45F
NEW RICHMOND   PTSUNNY   63  50  62 NE9       30.47F
OSCEOLA        FAIR      63  50  63 N6        30.51S
$$

WIZ003>005-009-010-017-018-291900-
NORTH CENTRAL WISCONSIN

CITY           SKY/WX    TMP DP  RH WIND       PRES   REMARKS
MANITOWISH WTR NOT AVBL
ARBOR VITAE    FAIR      62  53  72 NE8       30.47F
WOODRUFF       FAIR      62  53  72 NE8       30.47F
RHINELANDER    FAIR      65  53  65 MISG      30.46F
6HR MIN TEMP:  48; 6HR MAX TEMP:  65;

EAGLE RIVER    FAIR      61  50  65 N9        30.47S
LAND O LAKES   FAIR      58  51  76 NE6       30.50S
PHILLIPS       FAIR      62  52  69 E5        30.47F
TOMAHAWK       FAIR      63  51  64 NE5       30.46F
MEDFORD        FAIR      64  53  68 NE8       30.44F
MERRILL        FAIR      65  54  65 NE10      30.44F
$$

WIZ029-030-035-036-043>047-291900-
CENTRAL WISCONSIN

CITY           SKY/WX    TMP DP  RH WIND       PRES   REMARKS
WAUSAU         FAIR      67  53  61 N10       30.40F
6HR MIN TEMP:  47; 6HR MAX TEMP:  67;

MOSINEE        SUNNY     66  54  63 N7        30.42F
MARSHFIELD     FAIR      68  51  54 N10       30.41F
6HR MIN TEMP:  50; 6HR MAX TEMP:  68;

STEVENS POINT  FAIR      67  52  58 N10       30.40F
WAUPACA        FAIR      72  51  46 NE6G16    30.38S
WAUTOMA        FAIR      71  51  49 NE12G17   30.36F
6HR MIN TEMP:  51; 6HR MAX TEMP:  71;

WISC RAPIDS    FAIR      70  53  54 NE12      30.40F
6HR MIN TEMP:  49; 6HR MAX TEMP:  70;

CAMP DOUGLAS   NOT AVBL
$$

WIZ011>013-019>022-031-037>040-048>050-291900-
NORTHEAST WISCONSIN

CITY           SKY/WX    TMP DP  RH WIND       PRES   REMARKS
ANTIGO         FAIR      65  52  61 NE5G17    30.43F
SHAWANO        FAIR      70  55  57 NE12      30.39S
OCONTO         NOT AVBL
STURGEON BAY   FAIR      67  58  72 N16       30.37F
6HR MIN TEMP:  56; 6HR MAX TEMP:  69;

GREEN BAY      FAIR      69  58  67 NE17G24   30.36F
6HR MIN TEMP:  53; 6HR MAX TEMP:  69; 6HR PCP: TRACE;

MANITOWOC      FAIR      66  57  72 NE17G26   30.33S
APPLETON       MOSUNNY   68  48  49 NE17G23   30.35F
CLINTONVILLE   FAIR      70  50  49 NE13G18   30.38S
OSHKOSH        FAIR      67  56  67 N23G30    30.33F
6HR MIN TEMP:  54; 6HR MAX TEMP:  67;

$$

WIZ032>034-041-042-053>061-291900-
SOUTHWEST WISCONSIN

CITY           SKY/WX    TMP DP  RH WIND       PRES   REMARKS
LA CROSSE      FAIR      69  54  58 N8        30.40F
6HR MIN TEMP:  51; 6HR MAX TEMP:  69;

SPARTA         FAIR      66  54  65 N7        30.40F
VIROQUA        FAIR      67  51  55 N9        30.38F
BOSCOBEL       FAIR      74  51  44 N13       30.34F
6HR MIN TEMP:  49; 6HR MAX TEMP:  74;

PRAIRIE DU CHI FAIR      68  50  53 NW9       30.35F
PLATTEVILLE    FAIR      69  52  53 N16G23    30.32F
$$

WIZ056-057-062-063-064-067-068-291900-
SOUTH CENTRAL WISCONSIN

CITY           SKY/WX    TMP DP  RH WIND       PRES   REMARKS
REEDSBURG      NOT AVBL
BARABOO/DELLS  FAIR      69  47  46 NE15G21   30.34F HAZE
LONE ROCK      NOT AVBL
MINERAL POINT  FAIR      70  50  49 NE15G22   30.32F
MADISON        FAIR      70  54  56 NE17G28   30.30F
6HR MIN TEMP:  52; 6HR MAX TEMP:  70;

MIDDLETON      FAIR      71  52  52 NE18G26   30.31F
WATERTOWN      FAIR      68  56  65 NE13G25   30.28F
MONROE         FAIR      66  52  59 N20G28    30.28F
JANESVILLE     PTSUNNY   70  55  60 N14G21    30.24F
$$

WIZ051-052-058>065-066-070>072-291900-
SOUTHEAST WISCONSIN

CITY           SKY/WX    TMP DP  RH WIND       PRES   REMARKS
MILWAUKEE      PTSUNNY   66  57  72 N20G30    30.27F
6HR MIN TEMP:  59; 6HR MAX TEMP:  66;

WAUKESHA       CLOUDY    64  55  72 NE17G29   30.29S
MILWAUKEE/TIMM PTSUNNY   64  54  68 NE18G28   30.28S
RACINE         CLOUDY    61  56  83 N15       30.26S
6HR MIN TEMP:  57; 6HR MAX TEMP:  66;

BURLINGTON     CLOUDY    64  53  66 NE14G31   30.25F
KENOSHA        CLOUDY    62  56  80 N13G25    30.25R
6HR MIN TEMP:  59; 6HR MAX TEMP:  64;

FOND DU LAC    FAIR      68  58  70 N20G26    30.33F
6HR MIN TEMP:  57; 6HR MAX TEMP:  68;

SHEBOYGAN      FAIR      67  59  75 NE23G31   30.31S
6HR MIN TEMP:  57; 6HR MAX TEMP:  68;

WEST BEND      PTSUNNY   70  63  78 NE16G29   30.30S
JUNEAU         PTSUNNY   66  56  71 N13G25    30.32S
$$

LSZ147-162-291900-
LAKE SUPERIOR

STATION/POSITION TIME  TEMP    WIND        PRES    WAVE
                       AIR SEA DIR/SP/G            HT/PER
                 (UTC) (F)     (DEG/KT/KT) (MB)    (FT/S)
W MID LAKE BUOY  1650   55 55   50/  8/  8 1033.6R   2/ 5
DEVILS ISLAND    1700   53      30/ 11/ 12 1034.0F
SAXON HARBOR     1700   58      30/ 10/ 12 1032.8S
$$

LMZ867-665-643>646-291900-
LAKE MICHIGAN

STATION/POSITION TIME  TEMP    WIND        PRES    WAVE
                       AIR SEA DIR/SP/G            HT/PER
                 (UTC) (F)     (DEG/KT/KT) (MB)    (FT/S)
CHAMBERS ISLAND  1700   63      10/ 16/ 19 1028.8R
S GREEN BAY BUOY 1730   62 63   40/ 19/ 21 1027.9R
N MID LAKE BUOY  1650   62 66   40/ 16/ 19 1028.4R   3/ 4
NORTHPORT PIER   1700   65      30/  7/ 12 1029.1R
SISTER BAY       1708   71     360/ 14/ 18   N/A
KEWAUNEE LAKESHO 1700   62      10/ 10/ 17 1027.2F
SHEBOYGAN LAKESH 1700   61      20/ 19/ 20 1026.4R
PORT WASHINGTON  1716   64      40/ 18/ 26 1026.4S
ATWATER BUOY     1700   57 52   20/ 12/ 17 1025.0R
MILWAUKEE LAKESH 1710   60      20/ 18/ 22   N/A
S MID LAKE BUOY  1650   64 69   50/ 21/ 27 1022.1R   7/ 6
KENOSHA   LAKESH 1700   58      10/ 18/ 20 1023.4S
$$

TC  - TEMPERATURE IN CELSIUS
VSB - VISIBILITY IN STATUTE MILES
WCI - WIND CHILL INDEX
HX  - HEAT INDEX





USA.gov is the U.S. government's official web portal to all federal, state and local government web resources and services.